COSMOS 337

Satellite information

Favourite Embed

Satellite Type and Status

PAYLOADIN ORBIT

Key statistics

Satellite COSMOS 337 at a glance.

Uptime

20226

Days in orbit

Revolutions

≈ 12.4

Per day

Orbit

LEO

Low Earth Orbit

Inclination

74.0

Latest

Satellite identification and parameters

Extended collection of information and parameters for COSMOS 337.

Object identification

Identified? True

Debris? False

Object name: COSMOS 337

International designator: 1970-036B

Object number (NORAD): 4384

Object ID (CCSDS): 4384

Country: COMMONWEALTH OF INDEPENDENT STATES (CIS)

Current information (Y/N): Y

RCS size: MEDIUM

Orbital parameters

Period: 116.199 minutes

Inclination: 74.0272 deg

SMA: 7887.923 km

Apoapsis: 1552.163 km

Periapsis: 1467.412 km

RAAN: 63.145 deg

Eccentricy: 0.00537217

Argument of periapsis: 357.4737 deg

Mean anomaly: 59.0743 deg

Mean motion: 12.3924966 rev/day

Mean motion (dot): -0.00000019 rev/day2

B* drag term: -0.0000257522 1/REarth

Two-line elements (TLE)

Creation date: Sept. 8, 2025, 6:18 p.m.

Reference frame: TEME

Reference center: EARTH

Epoch: Sept. 8, 2025, 1:29 p.m. UTC

TLE line 0: 0 COSMOS 337

TLE line 1: 1 04384U 70036B 25251.56212834 -.00000019 00000-0 -25752-4 0 9998

TLE line 2: 2 04384 74.0272 63.1450 0053722 357.4737 59.0743 12.39249660504848

Live tracking on map

Real-time ground track for satellite COSMOS 337.

In-orbit conjunctions

A list of the most updated potential collisions computed for object COSMOS 337.

Target Orbit TCA Probability of collision Miss distance Type
SL-14 DEB LEO 2024-10-27 09:38:33 0.0006381162 211.0 (m) DEBRIS

Associated space launch

Military communications satellites

COSMOS 337 was lifted into orbit during the mission ‘Kosmos-3M | Strela-1M 1-8’, on board a Kosmos-3M space rocket.

The launch took place on April 25, 1970, 5:09 p.m. from 132/2.

For more information about the launch, click the button.

Launch to space Kosmos-3M | Strela-1M 1-8
Kosmos-3M | Strela-1M 1-8

Agency: N/A

Status: Launch Successful

Launch date: April 25, 1970, 5:09 p.m. UTC

Rocket: Kosmos-3M

Launch pad: 132/2

Location: Plesetsk Cosmodrome, Russian Federation

...

Latest news about this satellite

There are no fresh news available about this satellite. Check back as we update our databases every day.


Newsletter sign-up

Weekly statistics, charts and insights to help you stay on top of the space industry.